����������;��������(kVARh)
2017-05-15 00:00;18,95
2017-05-15 00:15;21,8
2017-05-15 00:30;17,8
2017-05-15 00:45;22,95
2017-05-15 01:00;23,5
2017-05-15 01:15;23,8
2017-05-15 01:30;18,55
2017-05-15 01:45;21,15
2017-05-15 02:00;22,35
2017-05-15 02:15;19,2
2017-05-15 02:30;18
2017-05-15 02:45;20,95
2017-05-15 03:00;18,55
2017-05-15 03:15;20,6
2017-05-15 03:30;23,95
2017-05-15 03:45;23,9
2017-05-15 04:00;21,45
2017-05-15 04:15;21,55
2017-05-15 04:30;24,45
2017-05-15 04:45;22,4
2017-05-15 05:00;21,5
2017-05-15 05:15;23,75
2017-05-15 05:30;24,8
2017-05-15 05:45;22,35
2017-05-15 06:00;24,35
2017-05-15 06:15;24,05
2017-05-15 06:30;22,05
2017-05-15 06:45;20,45
2017-05-15 07:00;21,85
2017-05-15 07:15;22,8
2017-05-15 07:30;23,25
2017-05-15 07:45;29,5
2017-05-15 08:00;27
2017-05-15 08:15;30,5
2017-05-15 08:30;23,9
2017-05-15 08:45;28,75
2017-05-15 09:00;36,8
2017-05-15 09:15;64,85
2017-05-15 09:30;71,1
2017-05-15 09:45;53,2
2017-05-15 10:00;57,1
2017-05-15 10:15;66,9
2017-05-15 10:30;76,8
2017-05-15 10:45;77,65
2017-05-15 11:00;80,4
2017-05-15 11:15;78,4
2017-05-15 11:30;78,75
2017-05-15 11:45;75,55
2017-05-15 12:00;74,5
2017-05-15 12:15;77,75
2017-05-15 12:30;72,7
2017-05-15 12:45;73,1
2017-05-15 13:00;70,25
2017-05-15 13:15;76,5
2017-05-15 13:30;80,2
2017-05-15 13:45;83
2017-05-15 14:00;80,65
2017-05-15 14:15;78,75
2017-05-15 14:30;80,75
2017-05-15 14:45;81,6
2017-05-15 15:00;80,6
2017-05-15 15:15;80,7
2017-05-15 15:30;78,5
2017-05-15 15:45;73,25
2017-05-15 16:00;65,2
2017-05-15 16:15;61,65
2017-05-15 16:30;66,55
2017-05-15 16:45;68,65
2017-05-15 17:00;59,7
2017-05-15 17:15;62,05
2017-05-15 17:30;57
2017-05-15 17:45;52,85
2017-05-15 18:00;44,6
2017-05-15 18:15;44,6
2017-05-15 18:30;42,95
2017-05-15 18:45;37,75
2017-05-15 19:00;31,8
2017-05-15 19:15;26,2
2017-05-15 19:30;25,05
2017-05-15 19:45;24,75
2017-05-15 20:00;24
2017-05-15 20:15;17,2
2017-05-15 20:30;24,7
2017-05-15 20:45;27,7
2017-05-15 21:00;27,25
2017-05-15 21:15;25,45
2017-05-15 21:30;26,05
2017-05-15 21:45;22,8
2017-05-15 22:00;20,4
2017-05-15 22:15;20,05
2017-05-15 22:30;21,65
2017-05-15 22:45;20,6
2017-05-15 23:00;21,95
2017-05-15 23:15;23,55
2017-05-15 23:30;25,15
2017-05-15 23:45;24,7
2017-05-16 00:00;22,2
2017-05-16 00:15;18,45
2017-05-16 00:30;21,2
2017-05-16 00:45;24,35
2017-05-16 01:00;20,8
2017-05-16 01:15;14,5
2017-05-16 01:30;12,75
2017-05-16 01:45;13,75
2017-05-16 02:00;10,95
2017-05-16 02:15;7,9
2017-05-16 02:30;8,8
2017-05-16 02:45;11,95
2017-05-16 03:00;8,05
2017-05-16 03:15;7,15
2017-05-16 03:30;6,75
2017-05-16 03:45;6,65
2017-05-16 04:00;8,2
2017-05-16 04:15;7,65
2017-05-16 04:30;7,45
2017-05-16 04:45;7,25
2017-05-16 05:00;6,95
2017-05-16 05:15;7,1
2017-05-16 05:30;8,2
2017-05-16 05:45;8,55
2017-05-16 06:00;8,65
2017-05-16 06:15;8,05
2017-05-16 06:30;12,85
2017-05-16 06:45;13,25
2017-05-16 07:00;6,8
2017-05-16 07:15;11,75
2017-05-16 07:30;22
2017-05-16 07:45;16,8
2017-05-16 08:00;5,8
2017-05-16 08:15;9,6
2017-05-16 08:30;18,8
2017-05-16 08:45;49,65
2017-05-16 09:00;50,35
2017-05-16 09:15;36,55
2017-05-16 09:30;41,9
2017-05-16 09:45;41,7
2017-05-16 10:00;40,35
2017-05-16 10:15;52,8
2017-05-16 10:30;58,95
2017-05-16 10:45;66,1
2017-05-16 11:00;72,85
2017-05-16 11:15;61,65
2017-05-16 11:30;62,3
2017-05-16 11:45;72,25
2017-05-16 12:00;67,7
2017-05-16 12:15;67,3
2017-05-16 12:30;67,5
2017-05-16 12:45;64,65
2017-05-16 13:00;68,15
2017-05-16 13:15;70,8
2017-05-16 13:30;65,9
2017-05-16 13:45;67,25
2017-05-16 14:00;71,4
2017-05-16 14:15;68,8
2017-05-16 14:30;58,55
2017-05-16 14:45;69,3
2017-05-16 15:00;60,8
2017-05-16 15:15;57,5
2017-05-16 15:30;56,8
2017-05-16 15:45;58,25
2017-05-16 16:00;53,45
2017-05-16 16:15;48,25
2017-05-16 16:30;48,35
2017-05-16 16:45;47,45
2017-05-16 17:00;45,35
2017-05-16 17:15;46,35
2017-05-16 17:30;49,4
2017-05-16 17:45;52,95
2017-05-16 18:00;41,25
2017-05-16 18:15;41,7
2017-05-16 18:30;40,6
2017-05-16 18:45;37,15
2017-05-16 19:00;32,4
2017-05-16 19:15;26
2017-05-16 19:30;26,8
2017-05-16 19:45;23,45
2017-05-16 20:00;21,25
2017-05-16 20:15;17,7
2017-05-16 20:30;17
2017-05-16 20:45;15,4
2017-05-16 21:00;14,1
2017-05-16 21:15;14,45
2017-05-16 21:30;14,25
2017-05-16 21:45;14,5
2017-05-16 22:00;15,4
2017-05-16 22:15;13,65
2017-05-16 22:30;14,6
2017-05-16 22:45;12,15
2017-05-16 23:00;9
2017-05-16 23:15;15,7
2017-05-16 23:30;9,85
2017-05-16 23:45;12,3
2017-05-17 00:00;7,75
2017-05-17 00:15;5,3
2017-05-17 00:30;1,6
2017-05-17 00:45;1,05
2017-05-17 01:00;0,8
2017-05-17 01:15;1,25
2017-05-17 01:30;1,35
2017-05-17 01:45;0,85
2017-05-17 02:00;0,2
2017-05-17 02:15;0
2017-05-17 02:30;0
2017-05-17 02:45;0
2017-05-17 03:00;0,05
2017-05-17 03:15;0,05
2017-05-17 03:30;5,05
2017-05-17 03:45;4,55
2017-05-17 04:00;4,85
2017-05-17 04:15;5,45
2017-05-17 04:30;4,35
2017-05-17 04:45;4,35
2017-05-17 05:00;4,5
2017-05-17 05:15;4,25
2017-05-17 05:30;6,85
2017-05-17 05:45;6,45
2017-05-17 06:00;6,95
2017-05-17 06:15;6,8
2017-05-17 06:30;13,35
2017-05-17 06:45;10,85
2017-05-17 07:00;10,6
2017-05-17 07:15;19,4
2017-05-17 07:30;20,4
2017-05-17 07:45;23,8
2017-05-17 08:00;18,5
2017-05-17 08:15;17,6
2017-05-17 08:30;21,05
2017-05-17 08:45;24,95
2017-05-17 09:00;25,3
2017-05-17 09:15;32,5
2017-05-17 09:30;34,5
2017-05-17 09:45;36,75
2017-05-17 10:00;36,5
2017-05-17 10:15;42,5
2017-05-17 10:30;45,85
2017-05-17 10:45;47
2017-05-17 11:00;46,4
2017-05-17 11:15;37,7
2017-05-17 11:30;41
2017-05-17 11:45;46,55
2017-05-17 12:00;48,9
2017-05-17 12:15;46,05
2017-05-17 12:30;46,2
2017-05-17 12:45;44,05
2017-05-17 13:00;45,65
2017-05-17 13:15;46,2
2017-05-17 13:30;51,1
2017-05-17 13:45;44,95
2017-05-17 14:00;41,15
2017-05-17 14:15;41,5
2017-05-17 14:30;44,5
2017-05-17 14:45;46,65
2017-05-17 15:00;42,05
2017-05-17 15:15;40,1
2017-05-17 15:30;41,3
2017-05-17 15:45;41,5
2017-05-17 16:00;40,15
2017-05-17 16:15;40,45
2017-05-17 16:30;40,2
2017-05-17 16:45;41,25
2017-05-17 17:00;36,85
2017-05-17 17:15;39
2017-05-17 17:30;38,2
2017-05-17 17:45;35,9
2017-05-17 18:00;36,85
2017-05-17 18:15;38,95
2017-05-17 18:30;36,5
2017-05-17 18:45;32,85
2017-05-17 19:00;28,15
2017-05-17 19:15;24
2017-05-17 19:30;22,85
2017-05-17 19:45;20,7
2017-05-17 20:00;17,9
2017-05-17 20:15;18,35
2017-05-17 20:30;20,1
2017-05-17 20:45;21,15
2017-05-17 21:00;15,15
2017-05-17 21:15;17,05
2017-05-17 21:30;15,1
2017-05-17 21:45;15
2017-05-17 22:00;13,45
2017-05-17 22:15;15
2017-05-17 22:30;16,2
2017-05-17 22:45;16,7
2017-05-17 23:00;19,25
2017-05-17 23:15;12,15
2017-05-17 23:30;13,85
2017-05-17 23:45;12,4
2017-05-18 00:00;14,1
2017-05-18 00:15;8,55
2017-05-18 00:30;3,05
2017-05-18 00:45;5,1
2017-05-18 01:00;6,35
2017-05-18 01:15;6,1
2017-05-18 01:30;6,5
2017-05-18 01:45;7,8
2017-05-18 02:00;5,9
2017-05-18 02:15;6,7
2017-05-18 02:30;7,8
2017-05-18 02:45;5,8
2017-05-18 03:00;5,75
2017-05-18 03:15;7,15
2017-05-18 03:30;7,8
2017-05-18 03:45;7,8
2017-05-18 04:00;7,8
2017-05-18 04:15;8,45
2017-05-18 04:30;6,9
2017-05-18 04:45;7,55
2017-05-18 05:00;9,4
2017-05-18 05:15;8,65
2017-05-18 05:30;6,9
2017-05-18 05:45;7,05
2017-05-18 06:00;6,45
2017-05-18 06:15;5,85
2017-05-18 06:30;14,7
2017-05-18 06:45;10,7
2017-05-18 07:00;7,4
2017-05-18 07:15;9,8
2017-05-18 07:30;14
2017-05-18 07:45;20,75
2017-05-18 08:00;18,95
2017-05-18 08:15;15,05
2017-05-18 08:30;21,15
2017-05-18 08:45;28,4
2017-05-18 09:00;33,1
2017-05-18 09:15;35,15
2017-05-18 09:30;37,45
2017-05-18 09:45;44,8
2017-05-18 10:00;42,9
2017-05-18 10:15;43,45
2017-05-18 10:30;45,25
2017-05-18 10:45;47,8
2017-05-18 11:00;44,35
2017-05-18 11:15;42,45
2017-05-18 11:30;46,7
2017-05-18 11:45;46,75
2017-05-18 12:00;45,95
2017-05-18 12:15;48,6
2017-05-18 12:30;46,6
2017-05-18 12:45;47,9
2017-05-18 13:00;49,9
2017-05-18 13:15;52,6
2017-05-18 13:30;51,05
2017-05-18 13:45;49,25
2017-05-18 14:00;47,35
2017-05-18 14:15;49,25
2017-05-18 14:30;52,9
2017-05-18 14:45;48,85
2017-05-18 15:00;52,7
2017-05-18 15:15;53,3
2017-05-18 15:30;50,85
2017-05-18 15:45;47,75
2017-05-18 16:00;47,95
2017-05-18 16:15;46,9
2017-05-18 16:30;49,15
2017-05-18 16:45;51,1
2017-05-18 17:00;41,8
2017-05-18 17:15;37,45
2017-05-18 17:30;44,25
2017-05-18 17:45;36,4
2017-05-18 18:00;36,4
2017-05-18 18:15;36,8
2017-05-18 18:30;35,3
2017-05-18 18:45;31,45
2017-05-18 19:00;30,85
2017-05-18 19:15;24,75
2017-05-18 19:30;26
2017-05-18 19:45;26,95
2017-05-18 20:00;27,6
2017-05-18 20:15;30,75
2017-05-18 20:30;27,8
2017-05-18 20:45;25,05
2017-05-18 21:00;24,95
2017-05-18 21:15;26,1
2017-05-18 21:30;25,3
2017-05-18 21:45;23,95
2017-05-18 22:00;25,3
2017-05-18 22:15;20,3
2017-05-18 22:30;21,35
2017-05-18 22:45;21,85
2017-05-18 23:00;19,65
2017-05-18 23:15;13,95
2017-05-18 23:30;11,7
2017-05-18 23:45;10,75
2017-05-19 00:00;11,9
2017-05-19 00:15;13,1
2017-05-19 00:30;12,65
2017-05-19 00:45;10,55
2017-05-19 01:00;9,95
2017-05-19 01:15;7,55
2017-05-19 01:30;6,45
2017-05-19 01:45;8,75
2017-05-19 02:00;8,3
2017-05-19 02:15;7,1
2017-05-19 02:30;6,9
2017-05-19 02:45;7,6
2017-05-19 03:00;8,1
2017-05-19 03:15;10,05
2017-05-19 03:30;8,75
2017-05-19 03:45;9,75
2017-05-19 04:00;8,85
2017-05-19 04:15;8,8
2017-05-19 04:30;8,15
2017-05-19 04:45;11,65
2017-05-19 05:00;9,6
2017-05-19 05:15;10,15
2017-05-19 05:30;9,2
2017-05-19 05:45;8,2
2017-05-19 06:00;7,95
2017-05-19 06:15;7,5
2017-05-19 06:30;7,1
2017-05-19 06:45;15,55
2017-05-19 07:00;9,75
2017-05-19 07:15;9,85
2017-05-19 07:30;8,1
2017-05-19 07:45;9,15
2017-05-19 08:00;15,85
2017-05-19 08:15;21,75
2017-05-19 08:30;20,35
2017-05-19 08:45;29,25
2017-05-19 09:00;31,45
2017-05-19 09:15;36,9
2017-05-19 09:30;43,55
2017-05-19 09:45;43,4
2017-05-19 10:00;42,05
2017-05-19 10:15;44,3
2017-05-19 10:30;46,75
2017-05-19 10:45;48,9
2017-05-19 11:00;47,85
2017-05-19 11:15;45,5
2017-05-19 11:30;52
2017-05-19 11:45;50,55
2017-05-19 12:00;45,75
2017-05-19 12:15;47,8
2017-05-19 12:30;53,8
2017-05-19 12:45;56,75
2017-05-19 13:00;52,85
2017-05-19 13:15;56,9
2017-05-19 13:30;59,05
2017-05-19 13:45;56,5
2017-05-19 14:00;57,7
2017-05-19 14:15;58,7
2017-05-19 14:30;58,5
2017-05-19 14:45;59
2017-05-19 15:00;59,3
2017-05-19 15:15;59,05
2017-05-19 15:30;53,15
2017-05-19 15:45;44,65
2017-05-19 16:00;47,8
2017-05-19 16:15;45,95
2017-05-19 16:30;46,4
2017-05-19 16:45;46
2017-05-19 17:00;48,65
2017-05-19 17:15;46,3
2017-05-19 17:30;43,15
2017-05-19 17:45;42,15
2017-05-19 18:00;40,4
2017-05-19 18:15;36,55
2017-05-19 18:30;36,3
2017-05-19 18:45;35,4
2017-05-19 19:00;41,95
2017-05-19 19:15;36,15
2017-05-19 19:30;24,2
2017-05-19 19:45;23,85
2017-05-19 20:00;22,5
2017-05-19 20:15;18,6
2017-05-19 20:30;22,45
2017-05-19 20:45;20,6
2017-05-19 21:00;19,6
2017-05-19 21:15;18,5
2017-05-19 21:30;20,7
2017-05-19 21:45;24
2017-05-19 22:00;17,95
2017-05-19 22:15;19,2
2017-05-19 22:30;22,75
2017-05-19 22:45;18,7
2017-05-19 23:00;21,05
2017-05-19 23:15;19,05
2017-05-19 23:30;14,95
2017-05-19 23:45;16,95
2017-05-20 00:00;14,95
2017-05-20 00:15;19,3
2017-05-20 00:30;22,55
2017-05-20 00:45;18,6
2017-05-20 01:00;19
2017-05-20 01:15;15,45
2017-05-20 01:30;11,75
2017-05-20 01:45;12,3
2017-05-20 02:00;13,1
2017-05-20 02:15;13,3
2017-05-20 02:30;13,3
2017-05-20 02:45;13,8
2017-05-20 03:00;13,35
2017-05-20 03:15;14,6
2017-05-20 03:30;15
2017-05-20 03:45;13
2017-05-20 04:00;11,85
2017-05-20 04:15;11,3
2017-05-20 04:30;11,2
2017-05-20 04:45;12,5
2017-05-20 05:00;11,25
2017-05-20 05:15;13,05
2017-05-20 05:30;13,55
2017-05-20 05:45;10,95
2017-05-20 06:00;13,1
2017-05-20 06:15;12
2017-05-20 06:30;10,7
2017-05-20 06:45;12,35
2017-05-20 07:00;10,15
2017-05-20 07:15;8,65
2017-05-20 07:30;7,55
2017-05-20 07:45;4,7
2017-05-20 08:00;3,9
2017-05-20 08:15;2,35
2017-05-20 08:30;6,05
2017-05-20 08:45;7,35
2017-05-20 09:00;10,25
2017-05-20 09:15;7,35
2017-05-20 09:30;7,15
2017-05-20 09:45;9,5
2017-05-20 10:00;7,2
2017-05-20 10:15;6,85
2017-05-20 10:30;8,05
2017-05-20 10:45;10,5
2017-05-20 11:00;13,3
2017-05-20 11:15;7,1
2017-05-20 11:30;9,15
2017-05-20 11:45;7,1
2017-05-20 12:00;8,05
2017-05-20 12:15;9,8
2017-05-20 12:30;9,25
2017-05-20 12:45;8,9
2017-05-20 13:00;8,6
2017-05-20 13:15;10,9
2017-05-20 13:30;7,7
2017-05-20 13:45;13
2017-05-20 14:00;14,6
2017-05-20 14:15;13,25
2017-05-20 14:30;14,15
2017-05-20 14:45;15,1
2017-05-20 15:00;15,7
2017-05-20 15:15;15,55
2017-05-20 15:30;18,75
2017-05-20 15:45;18,45
2017-05-20 16:00;20,2
2017-05-20 16:15;21,35
2017-05-20 16:30;20,55
2017-05-20 16:45;21
2017-05-20 17:00;20,5
2017-05-20 17:15;19,8
2017-05-20 17:30;19,9
2017-05-20 17:45;20,9
2017-05-20 18:00;17,85
2017-05-20 18:15;16,25
2017-05-20 18:30;17
2017-05-20 18:45;16,3
2017-05-20 19:00;16,6
2017-05-20 19:15;16,6
2017-05-20 19:30;15,05
2017-05-20 19:45;13,25
2017-05-20 20:00;14,5
2017-05-20 20:15;13,45
2017-05-20 20:30;16
2017-05-20 20:45;15,45
2017-05-20 21:00;12,95
2017-05-20 21:15;13
2017-05-20 21:30;13,95
2017-05-20 21:45;12,75
2017-05-20 22:00;10,95
2017-05-20 22:15;14,4
2017-05-20 22:30;13,5
2017-05-20 22:45;15,35
2017-05-20 23:00;16,85
2017-05-20 23:15;16,4
2017-05-20 23:30;17,2
2017-05-20 23:45;18,9
2017-05-21 00:00;16,25
2017-05-21 00:15;7,15
2017-05-21 00:30;9,3
2017-05-21 00:45;9
2017-05-21 01:00;10,35
2017-05-21 01:15;10,75
2017-05-21 01:30;10
2017-05-21 01:45;9,7
2017-05-21 02:00;10,35
2017-05-21 02:15;9,95
2017-05-21 02:30;9,3
2017-05-21 02:45;10,8
2017-05-21 03:00;11,1
2017-05-21 03:15;11,2
2017-05-21 03:30;12,55
2017-05-21 03:45;11,55
2017-05-21 04:00;10,7
2017-05-21 04:15;9,45
2017-05-21 04:30;13,5
2017-05-21 04:45;10,8
2017-05-21 05:00;11,15
2017-05-21 05:15;12,35
2017-05-21 05:30;12,4
2017-05-21 05:45;9,8
2017-05-21 06:00;11,85
2017-05-21 06:15;10,1
2017-05-21 06:30;10,7
2017-05-21 06:45;11,7
2017-05-21 07:00;12,1
2017-05-21 07:15;9,8
2017-05-21 07:30;9,45
2017-05-21 07:45;8,05
2017-05-21 08:00;8,95
2017-05-21 08:15;6,5
2017-05-21 08:30;5,8
2017-05-21 08:45;5,3
2017-05-21 09:00;5
2017-05-21 09:15;2,95
2017-05-21 09:30;1,9
2017-05-21 09:45;5,4
2017-05-21 10:00;10,6
2017-05-21 10:15;11,3
2017-05-21 10:30;10,6
2017-05-21 10:45;9,8
2017-05-21 11:00;10,5
2017-05-21 11:15;7,95
2017-05-21 11:30;9,75
2017-05-21 11:45;8,5
2017-05-21 12:00;8,6
2017-05-21 12:15;9,1
2017-05-21 12:30;7,2
2017-05-21 12:45;6,9
2017-05-21 13:00;6,6
2017-05-21 13:15;6,2
2017-05-21 13:30;7,5
2017-05-21 13:45;7,85
2017-05-21 14:00;7,55
2017-05-21 14:15;6,1
2017-05-21 14:30;8,9
2017-05-21 14:45;9,25
2017-05-21 15:00;9,85
2017-05-21 15:15;8,75
2017-05-21 15:30;8,6
2017-05-21 15:45;11,55
2017-05-21 16:00;13
2017-05-21 16:15;12,75
2017-05-21 16:30;12,15
2017-05-21 16:45;15,3
2017-05-21 17:00;13,6
2017-05-21 17:15;14,3
2017-05-21 17:30;17,15
2017-05-21 17:45;14,65
2017-05-21 18:00;13,75
2017-05-21 18:15;11,8
2017-05-21 18:30;10,3
2017-05-21 18:45;9,6
2017-05-21 19:00;11,2
2017-05-21 19:15;8,45
2017-05-21 19:30;10
2017-05-21 19:45;9,45
2017-05-21 20:00;8,1
2017-05-21 20:15;9,1
2017-05-21 20:30;9,05
2017-05-21 20:45;9,4
2017-05-21 21:00;7,2
2017-05-21 21:15;7,35
2017-05-21 21:30;9,6
2017-05-21 21:45;11,25
2017-05-21 22:00;10,75
2017-05-21 22:15;10,3
2017-05-21 22:30;11,65
2017-05-21 22:45;12,8
2017-05-21 23:00;11,9
2017-05-21 23:15;12,25
2017-05-21 23:30;9,85
2017-05-21 23:45;7,35

